^^
Your Local Weather - Clay, NY Station Historical Data
Daily Summary for June 11, 2017 Units:  English    Metric   Both
« Previous Day
Next Day »
Daily Weekly Monthly Yearly Custom
  High: Low: Average:
Temperature: 88.2 °F 63.1 °F 77.8 °F
Dew Point: 63.0 °F 52.8 °F 58.7 °F
Humidity: 82% 31% 54%
Wind Speed: 6.0mph 0.0mph 2.1mph
Wind Gust: 13.0mph - -
Wind- - WSW
Pressure: 29.94 in 29.87 in -
Precipitation: 0.00 in    
Historical Graphs
 
 
Tabular Data for June 11, 2017
Time Temperature Dew Point Pressure Wind Wind Speed Wind Gust Humidity Rainfall Rate (Hourly) solar
00:00 65.7 °F 56.8 °F 29.87 in Calm     73% 0.00 in 0 W/m2
00:06 65.7 °F 58.3 °F 29.88 in Calm     77% 0.00 in 0 W/m2
00:12 65.4 °F 58.4 °F 29.88 in Calm     78% 0.00 in 0 W/m2
00:18 65.1 °F 57.7 °F 29.88 in Calm     77% 0.00 in 0 W/m2
00:24 65.0 °F 58.3 °F 29.88 in Calm     79% 0.00 in 0 W/m2
00:30 64.7 °F 58.0 °F 29.88 in Calm     79% 0.00 in 0 W/m2
00:36 64.5 °F 57.5 °F 29.88 in Calm     78% 0.00 in 0 W/m2
00:42 64.4 °F 57.7 °F 29.88 in Calm     79% 0.00 in 0 W/m2
00:48 64.2 °F 57.9 °F 29.88 in Calm     80% 0.00 in 0 W/m2
00:54 64.1 °F 57.8 °F 29.88 in Calm     80% 0.00 in 0 W/m2
01:00 63.9 °F 57.3 °F 29.88 in Calm     79% 0.00 in 0 W/m2
01:06 63.8 °F 56.8 °F 29.88 in Calm     78% 0.00 in 0 W/m2
01:12 63.7 °F 56.7 °F 29.87 in Calm     78% 0.00 in 0 W/m2
01:18 63.6 °F 57.0 °F 29.87 in Calm     79% 0.00 in 0 W/m2
01:24 63.6 °F 57.3 °F 29.88 in Calm     80% 0.00 in 0 W/m2
01:30 63.5 °F 56.9 °F 29.88 in Calm     79% 0.00 in 0 W/m2
01:36 63.4 °F 56.8 °F 29.88 in Calm     79% 0.00 in 0 W/m2
01:42 63.4 °F 56.4 °F 29.88 in Calm     78% 0.00 in 0 W/m2
01:48 63.3 °F 56.3 °F 29.88 in Calm     78% 0.00 in 0 W/m2
01:54 63.2 °F 56.6 °F 29.88 in Calm     79% 0.00 in 0 W/m2
02:00 63.1 °F 56.5 °F 29.88 in Calm     79% 0.00 in 0 W/m2
02:06 63.1 °F 56.5 °F 29.88 in Calm     79% 0.00 in 0 W/m2
02:12 63.1 °F 56.8 °F 29.88 in Calm     80% 0.00 in 0 W/m2
02:18 63.1 °F 56.8 °F 29.88 in Calm   2.0 mph 80% 0.00 in 0 W/m2
02:24 63.5 °F 57.2 °F 29.88 in Calm     80% 0.00 in 0 W/m2
02:30 63.5 °F 57.6 °F 29.88 in Calm     81% 0.00 in 0 W/m2
02:36 63.4 °F 57.5 °F 29.88 in Calm     81% 0.00 in 0 W/m2
02:42 63.3 °F 57.4 °F 29.88 in Calm   1.0 mph 81% 0.00 in 0 W/m2
02:48 63.8 °F 58.2 °F 29.88 in Calm   1.0 mph 82% 0.00 in 0 W/m2
02:54 64.2 °F 58.6 °F 29.88 in Calm   1.0 mph 82% 0.00 in 0 W/m2
03:00 65.2 °F 59.2 °F 29.89 in Calm     81% 0.00 in 0 W/m2
03:06 65.5 °F 58.8 °F 29.89 in Calm     79% 0.00 in 0 W/m2
03:12 67.9 °F 60.1 °F 29.89 in SW 1.0 mph 1.0 mph 76% 0.00 in 0 W/m2
03:18 70.1 °F 60.3 °F 29.89 in SW 2.0 mph 4.0 mph 71% 0.00 in 0 W/m2
03:24 71.3 °F 60.6 °F 29.90 in SW 2.0 mph 3.0 mph 69% 0.00 in 0 W/m2
03:30 71.7 °F 60.2 °F 29.90 in SSW 2.0 mph 2.0 mph 67% 0.00 in 0 W/m2
03:36 71.9 °F 60.3 °F 29.90 in SSW 2.0 mph 4.0 mph 67% 0.00 in 0 W/m2
03:42 72.1 °F 60.1 °F 29.90 in SW 2.0 mph 2.0 mph 66% 0.00 in 0 W/m2
03:48 72.3 °F 60.3 °F 29.90 in SSW 3.0 mph 6.0 mph 66% 0.00 in 0 W/m2
03:54 72.1 °F 60.1 °F 29.90 in SSW 3.0 mph 3.0 mph 66% 0.00 in 0 W/m2
04:00 72.1 °F 60.1 °F 29.90 in WSW 2.0 mph 2.0 mph 66% 0.00 in 0 W/m2
04:06 71.9 °F 59.9 °F 29.90 in SW 2.0 mph 2.0 mph 66% 0.00 in 0 W/m2
04:12 71.9 °F 59.9 °F 29.90 in SW 2.0 mph 4.0 mph 66% 0.00 in 0 W/m2
04:18 71.7 °F 60.2 °F 29.90 in SSW 2.0 mph 4.0 mph 67% 0.00 in 0 W/m2
04:24 71.6 °F 60.1 °F 29.91 in SW 2.0 mph 2.0 mph 67% 0.00 in 0 W/m2
04:30 71.5 °F 60.0 °F 29.91 in SW 2.0 mph 2.0 mph 67% 0.00 in 0 W/m2
04:36 71.5 °F 60.0 °F 29.91 in South 3.0 mph 4.0 mph 67% 0.00 in 0 W/m2
04:42 71.4 °F 59.9 °F 29.91 in WSW 2.0 mph 2.0 mph 67% 0.00 in 0 W/m2
04:48 71.4 °F 59.9 °F 29.91 in WSW 2.0 mph 3.0 mph 67% 0.00 in 0 W/m2
04:54 71.4 °F 59.9 °F 29.91 in West 3.0 mph 3.0 mph 67% 0.00 in 0 W/m2
05:00 71.2 °F 59.7 °F 29.91 in WSW 2.0 mph 2.0 mph 67% 0.00 in 0 W/m2
05:06 71.2 °F 59.7 °F 29.91 in WSW 2.0 mph 3.0 mph 67% 0.00 in 0 W/m2
05:12 71.2 °F 59.3 °F 29.91 in SW 3.0 mph 3.0 mph 66% 0.00 in 0 W/m2
05:18 71.0 °F 59.5 °F 29.91 in SSE 2.0 mph 3.0 mph 67% 0.00 in 0 W/m2
05:24 71.0 °F 59.5 °F 29.91 in SSW 2.0 mph 4.0 mph 67% 0.00 in 0 W/m2
05:36 71.1 °F 59.2 °F 29.91 in South 3.0 mph 3.0 mph 66% 0.00 in 7 W/m2
05:42 71.1 °F 58.7 °F 29.91 in WSW 3.0 mph 6.0 mph 65% 0.00 in 11 W/m2
05:48 71.1 °F 58.7 °F 29.91 in SW 3.0 mph 6.0 mph 65% 0.00 in 12 W/m2
05:54 71.0 °F 58.6 °F 29.91 in SSW 3.0 mph 5.0 mph 65% 0.00 in 16 W/m2
06:00 71.1 °F 58.7 °F 29.91 in South 3.0 mph 4.0 mph 65% 0.00 in 19 W/m2
06:06 71.1 °F 58.7 °F 29.92 in SSW 3.0 mph 4.0 mph 65% 0.00 in 23 W/m2
06:12 71.1 °F 58.3 °F 29.92 in SW 3.0 mph 7.0 mph 64% 0.00 in 25 W/m2
06:18 71.2 °F 58.4 °F 29.92 in SW 3.0 mph 7.0 mph 64% 0.00 in 32 W/m2
06:24 71.3 °F 58.5 °F 29.92 in SSW 3.0 mph 3.0 mph 64% 0.00 in 69 W/m2
06:30 71.5 °F 58.7 °F 29.93 in SSW 3.0 mph 4.0 mph 64% 0.00 in 93 W/m2
06:36 71.7 °F 58.4 °F 29.93 in SSW 3.0 mph 4.0 mph 63% 0.00 in 118 W/m2
06:42 72.1 °F 58.4 °F 29.93 in WSW 3.0 mph 3.0 mph 62% 0.00 in 120 W/m2
06:48 72.4 °F 58.6 °F 29.93 in SW 4.0 mph 8.0 mph 62% 0.00 in 137 W/m2
06:54 72.6 °F 58.4 °F 29.93 in South 3.0 mph 3.0 mph 61% 0.00 in 172 W/m2
07:00 72.9 °F 58.7 °F 29.93 in SSE 2.0 mph 2.0 mph 61% 0.00 in 171 W/m2
07:06 73.1 °F 58.8 °F 29.93 in WSW 2.0 mph 5.0 mph 61% 0.00 in 169 W/m2
07:12 73.2 °F 58.9 °F 29.93 in SW 3.0 mph 7.0 mph 61% 0.00 in 113 W/m2
07:18 73.1 °F 58.4 °F 29.93 in WSW 2.0 mph 7.0 mph 60% 0.00 in 130 W/m2
07:24 73.2 °F 58.9 °F 29.93 in West 3.0 mph 4.0 mph 61% 0.00 in 225 W/m2
07:30 73.5 °F 59.2 °F 29.93 in SW 3.0 mph 3.0 mph 61% 0.00 in 211 W/m2
07:36 73.7 °F 58.9 °F 29.92 in SSE 3.0 mph 4.0 mph 60% 0.00 in 227 W/m2
07:42 74.0 °F 59.2 °F 29.92 in SW 4.0 mph 10.0 mph 60% 0.00 in 299 W/m2
07:48 74.4 °F 59.1 °F 29.92 in SW 4.0 mph 11.0 mph 59% 0.00 in 302 W/m2
07:54 74.6 °F 59.3 °F 29.92 in WSW 4.0 mph 5.0 mph 59% 0.00 in 274 W/m2
08:00 74.9 °F 59.6 °F 29.92 in WSW 4.0 mph 4.0 mph 59% 0.00 in 362 W/m2
08:06 75.2 °F 59.4 °F 29.92 in SW 5.0 mph 6.0 mph 58% 0.00 in 318 W/m2
08:12 75.5 °F 60.2 °F 29.92 in SW 4.0 mph 5.0 mph 59% 0.00 in 308 W/m2
08:18 75.7 °F 60.4 °F 29.92 in West 4.0 mph 5.0 mph 59% 0.00 in 330 W/m2
08:24 75.9 °F 60.1 °F 29.93 in WSW 4.0 mph 7.0 mph 58% 0.00 in 334 W/m2
08:30 76.2 °F 60.8 °F 29.93 in SSW 3.0 mph 3.0 mph 59% 0.00 in 387 W/m2
08:36 76.6 °F 60.2 °F 29.92 in WSW 2.0 mph 3.0 mph 57% 0.00 in 450 W/m2
08:42 77.1 °F 60.2 °F 29.93 in WSW 3.0 mph 5.0 mph 56% 0.00 in 482 W/m2
08:48 77.4 °F 60.5 °F 29.93 in WSW 4.0 mph 5.0 mph 56% 0.00 in 531 W/m2
08:54 77.7 °F 60.2 °F 29.93 in West 5.0 mph 8.0 mph 55% 0.00 in 545 W/m2
09:00 77.9 °F 60.4 °F 29.93 in West 5.0 mph 5.0 mph 55% 0.00 in 564 W/m2
09:06 78.5 °F 61.0 °F 29.93 in WSW 3.0 mph 5.0 mph 55% 0.00 in 584 W/m2
09:12 79.1 °F 60.5 °F 29.94 in SW 2.0 mph 3.0 mph 53% 0.00 in 603 W/m2
09:18 78.9 °F 59.8 °F 29.94 in WSW 4.0 mph 8.0 mph 52% 0.00 in 610 W/m2
09:24 79.1 °F 60.5 °F 29.94 in SW 4.0 mph 5.0 mph 53% 0.00 in 592 W/m2
09:30 79.1 °F 60.0 °F 29.94 in WSW 5.0 mph 5.0 mph 52% 0.00 in 629 W/m2
09:36 79.3 °F 60.7 °F 29.94 in West 5.0 mph 5.0 mph 53% 0.00 in 677 W/m2
09:42 79.5 °F 60.3 °F 29.94 in WNW 4.0 mph 4.0 mph 52% 0.00 in 691 W/m2
09:48 79.5 °F 61.4 °F 29.94 in WSW 4.0 mph 9.0 mph 54% 0.00 in 696 W/m2
09:54 79.6 °F 61.0 °F 29.94 in WSW 5.0 mph 9.0 mph 53% 0.00 in 733 W/m2
10:00 80.0 °F 60.8 °F 29.94 in SW 4.0 mph 4.0 mph 52% 0.00 in 742 W/m2
10:06 80.3 °F 61.1 °F 29.94 in SW 5.0 mph 6.0 mph 52% 0.00 in 729 W/m2
10:12 80.5 °F 62.8 °F 29.94 in West 5.0 mph 9.0 mph 55% 0.00 in 773 W/m2
10:18 80.8 °F 62.6 °F 29.94 in SSW 3.0 mph 9.0 mph 54% 0.00 in 784 W/m2
10:24 81.2 °F 63.0 °F 29.93 in West 2.0 mph 3.0 mph 54% 0.00 in 800 W/m2
10:30 81.7 °F 61.8 °F 29.93 in WNW 2.0 mph 5.0 mph 51% 0.00 in 802 W/m2
10:36 81.5 °F 60.5 °F 29.93 in NNW 3.0 mph 7.0 mph 49% 0.00 in 812 W/m2
10:42 81.8 °F 60.8 °F 29.92 in SW 3.0 mph 3.0 mph 49% 0.00 in 844 W/m2
10:48 81.8 °F 60.2 °F 29.92 in SSW 3.0 mph 13.0 mph 48% 0.00 in 819 W/m2
10:54 81.2 °F 59.1 °F 29.92 in SSW 6.0 mph 8.0 mph 47% 0.00 in 756 W/m2
11:00 81.6 °F 60.6 °F 29.92 in SW 5.0 mph 5.0 mph 49% 0.00 in 737 W/m2
11:06 81.6 °F 61.7 °F 29.92 in SW 5.0 mph 7.0 mph 51% 0.00 in 807 W/m2
11:12 81.8 °F 60.8 °F 29.92 in WSW 5.0 mph 6.0 mph 49% 0.00 in 842 W/m2
11:18 82.1 °F 60.5 °F 29.92 in SW 5.0 mph 12.0 mph 48% 0.00 in 788 W/m2
11:24 82.0 °F 59.8 °F 29.92 in SSW 5.0 mph 7.0 mph 47% 0.00 in 758 W/m2
11:30 81.9 °F 60.3 °F 29.92 in West 4.0 mph 4.0 mph 48% 0.00 in 842 W/m2
11:36 82.5 °F 60.2 °F 29.92 in WSW 3.0 mph 7.0 mph 47% 0.00 in 687 W/m2
11:42 82.0 °F 61.0 °F 29.92 in South 4.0 mph 9.0 mph 49% 0.00 in 765 W/m2
11:48 82.5 °F 60.2 °F 29.92 in West 4.0 mph 9.0 mph 47% 0.00 in 893 W/m2
11:54 83.4 °F 61.1 °F 29.91 in SSW 3.0 mph 5.0 mph 47% 0.00 in 949 W/m2
12:00 83.7 °F 59.5 °F 29.91 in South 4.0 mph 4.0 mph 44% 0.00 in 930 W/m2
12:06 83.5 °F 59.9 °F 29.91 in SW 4.0 mph 4.0 mph 45% 0.00 in 937 W/m2
12:12 83.4 °F 59.2 °F 29.91 in WSW 5.0 mph 5.0 mph 44% 0.00 in 933 W/m2
12:18 83.6 °F 60.0 °F 29.91 in WSW 4.0 mph 7.0 mph 45% 0.00 in 935 W/m2
12:24 84.2 °F 59.9 °F 29.91 in North 3.0 mph 4.0 mph 44% 0.00 in 937 W/m2
12:30 84.3 °F 60.6 °F 29.91 in WSW 4.0 mph 4.0 mph 45% 0.00 in 940 W/m2
12:36 84.6 °F 62.1 °F 29.91 in WNW 4.0 mph 4.0 mph 47% 0.00 in 940 W/m2
12:42 84.3 °F 59.4 °F 29.91 in WSW 4.0 mph 8.0 mph 43% 0.00 in 949 W/m2
12:54 84.3 °F 60.6 °F 29.91 in SSW 4.0 mph 7.0 mph 45% 0.00 in 951 W/m2
13:00 84.3 °F 58.7 °F 29.91 in NW 3.0 mph 3.0 mph 42% 0.00 in 944 W/m2
13:06 84.8 °F 59.8 °F 29.91 in WSW 2.0 mph 5.0 mph 43% 0.00 in 942 W/m2
13:12 85.0 °F 60.6 °F 29.91 in West 3.0 mph 8.0 mph 44% 0.00 in 947 W/m2
13:18 85.2 °F 60.8 °F 29.91 in West 4.0 mph 8.0 mph 44% 0.00 in 951 W/m2
13:24 84.7 °F 59.1 °F 29.91 in SW 5.0 mph 11.0 mph 42% 0.00 in 940 W/m2
13:30 85.4 °F 61.0 °F 29.91 in West 5.0 mph 5.0 mph 44% 0.00 in 940 W/m2
13:36 85.2 °F 59.5 °F 29.91 in WSW 5.0 mph 11.0 mph 42% 0.00 in 942 W/m2
13:42 85.1 °F 59.4 °F 29.91 in West 5.0 mph 6.0 mph 42% 0.00 in 933 W/m2
13:48 86.1 °F 62.9 °F 29.91 in SSW 3.0 mph 6.0 mph 46% 0.00 in 930 W/m2
13:56 85.9 °F 60.1 °F 29.91 in WSW 3.0 mph 8.0 mph 42% 0.00 in 930 W/m2
14:02 85.8 °F 61.4 °F 29.91 in West 3.0 mph 4.0 mph 44% 0.00 in 923 W/m2
14:08 86.3 °F 59.1 °F 29.91 in SW 3.0 mph 5.0 mph 40% 0.00 in 921 W/m2
14:14 86.3 °F 61.2 °F 29.92 in West 3.0 mph 3.0 mph 43% 0.00 in 914 W/m2
14:20 85.9 °F 60.8 °F 29.92 in West 3.0 mph 4.0 mph 43% 0.00 in 900 W/m2
14:26 86.3 °F 61.8 °F 29.91 in NW 3.0 mph 4.0 mph 44% 0.00 in 889 W/m2
14:32 87.1 °F 59.8 °F 29.91 in WSW 2.0 mph 3.0 mph 40% 0.00 in 884 W/m2
14:38 86.8 °F 58.9 °F 29.91 in WSW 4.0 mph 6.0 mph 39% 0.00 in 881 W/m2
14:44 86.7 °F 61.5 °F 29.91 in WNW 4.0 mph 6.0 mph 43% 0.00 in 874 W/m2
14:50 86.7 °F 57.3 °F 29.91 in WNW 3.0 mph 5.0 mph 37% 0.00 in 861 W/m2
14:56 86.8 °F 60.3 °F 29.91 in West 3.0 mph 5.0 mph 41% 0.00 in 853 W/m2
15:02 86.9 °F 59.0 °F 29.91 in West 3.0 mph 5.0 mph 39% 0.00 in 838 W/m2
15:08 86.8 °F 58.9 °F 29.91 in NNW 3.0 mph 5.0 mph 39% 0.00 in 830 W/m2
15:14 86.7 °F 60.9 °F 29.92 in WSW 4.0 mph 5.0 mph 42% 0.00 in 821 W/m2
15:20 87.1 °F 59.8 °F 29.91 in NW 3.0 mph 3.0 mph 40% 0.00 in 809 W/m2
15:26 87.5 °F 59.5 °F 29.91 in WSW 3.0 mph 6.0 mph 39% 0.00 in 795 W/m2
15:32 87.7 °F 58.9 °F 29.91 in West 3.0 mph 3.0 mph 38% 0.00 in 791 W/m2
15:38 87.6 °F 58.9 °F 29.91 in WNW 3.0 mph 4.0 mph 38% 0.00 in 766 W/m2
15:44 87.2 °F 59.9 °F 29.91 in WSW 3.0 mph 8.0 mph 40% 0.00 in 758 W/m2
15:50 87.4 °F 60.1 °F 29.91 in SW 3.0 mph 3.0 mph 40% 0.00 in 745 W/m2
15:56 87.5 °F 60.9 °F 29.90 in WSW 2.0 mph 3.0 mph 41% 0.00 in 735 W/m2
16:02 87.5 °F 62.2 °F 29.90 in SW 3.0 mph 8.0 mph 43% 0.00 in 721 W/m2
16:08 87.5 °F 62.2 °F 29.90 in SSW 3.0 mph 8.0 mph 43% 0.00 in 700 W/m2
16:14 87.7 °F 59.7 °F 29.90 in South 3.0 mph 5.0 mph 39% 0.00 in 686 W/m2
16:20 87.6 °F 59.6 °F 29.90 in SW 5.0 mph 5.0 mph 39% 0.00 in 671 W/m2
16:26 87.9 °F 59.1 °F 29.90 in SW 4.0 mph 5.0 mph 38% 0.00 in 673 W/m2
16:32 87.9 °F 59.8 °F 29.89 in SW 3.0 mph 4.0 mph 39% 0.00 in 162 W/m2
16:38 88.2 °F 59.4 °F 29.89 in WSW 3.0 mph 5.0 mph 38% 0.00 in 128 W/m2
16:44 87.9 °F 60.6 °F 29.89 in WSW 4.0 mph 8.0 mph 40% 0.00 in 619 W/m2
16:50 87.6 °F 59.6 °F 29.89 in SW 5.0 mph 5.0 mph 39% 0.00 in 88 W/m2
16:56 87.6 °F 59.6 °F 29.89 in NW 3.0 mph 5.0 mph 39% 0.00 in 185 W/m2
17:02 87.6 °F 58.9 °F 29.89 in SW 3.0 mph 6.0 mph 38% 0.00 in 76 W/m2
17:08 87.4 °F 59.4 °F 29.89 in SSW 3.0 mph 8.0 mph 39% 0.00 in 74 W/m2
17:14 87.4 °F 57.9 °F 29.89 in WSW 3.0 mph 6.0 mph 37% 0.00 in 69 W/m2
17:20 87.4 °F 57.2 °F 29.89 in SW 3.0 mph 3.0 mph 36% 0.00 in 56 W/m2
17:26 87.4 °F 57.9 °F 29.89 in SW 3.0 mph 4.0 mph 37% 0.00 in 54 W/m2
17:32 87.3 °F 57.1 °F 29.89 in NW 2.0 mph 3.0 mph 36% 0.00 in 53 W/m2
17:38 87.2 °F 57.0 °F 29.89 in WNW 2.0 mph 6.0 mph 36% 0.00 in 53 W/m2
17:44 87.1 °F 55.3 °F 29.89 in WSW 2.0 mph 3.0 mph 34% 0.00 in 51 W/m2
17:50 87.1 °F 52.8 °F 29.89 in SW 3.0 mph 3.0 mph 31% 0.00 in 49 W/m2
17:56 87.2 °F 57.0 °F 29.89 in SW 2.0 mph 3.0 mph 36% 0.00 in 49 W/m2
18:02 87.1 °F 54.5 °F 29.89 in NW 1.0 mph 3.0 mph 33% 0.00 in 47 W/m2
18:08 86.9 °F 56.7 °F 29.89 in NW 1.0 mph 3.0 mph 36% 0.00 in 47 W/m2
18:12 86.7 °F 57.3 °F 29.89 in Calm   4.0 mph 37% 0.00 in 47 W/m2
18:18 86.4 °F 55.5 °F 29.89 in NNW 1.0 mph 4.0 mph 35% 0.00 in 46 W/m2
18:24 86.2 °F 56.1 °F 29.89 in NNW 1.0 mph 1.0 mph 36% 0.00 in 46 W/m2
18:30 86.0 °F 55.2 °F 29.89 in NW 1.0 mph 1.0 mph 35% 0.00 in 46 W/m2
18:36 86.0 °F 55.9 °F 29.89 in NW 1.0 mph 2.0 mph 36% 0.00 in 46 W/m2
18:42 86.0 °F 56.7 °F 29.89 in Calm   1.0 mph 37% 0.00 in 44 W/m2
18:48 85.9 °F 58.8 °F 29.89 in NW 1.0 mph 2.0 mph 40% 0.00 in 46 W/m2
18:54 85.7 °F 58.6 °F 29.89 in Calm   1.0 mph 40% 0.00 in 44 W/m2
19:00 85.4 °F 56.2 °F 29.89 in Calm     37% 0.00 in 44 W/m2
19:06 85.2 °F 56.0 °F 29.89 in NW 1.0 mph 2.0 mph 37% 0.00 in 42 W/m2
19:12 85.0 °F 55.1 °F 29.89 in Calm     36% 0.00 in 40 W/m2
19:18 84.9 °F 55.7 °F 29.89 in Calm   2.0 mph 37% 0.00 in 40 W/m2
19:24 84.7 °F 55.5 °F 29.89 in NW 1.0 mph 1.0 mph 37% 0.00 in 39 W/m2
19:30 84.4 °F 57.4 °F 29.89 in Calm     40% 0.00 in 42 W/m2
19:36 83.9 °F 56.3 °F 29.90 in Calm   2.0 mph 39% 0.00 in 32 W/m2
19:42 83.5 °F 56.6 °F 29.90 in Calm     40% 0.00 in 26 W/m2
19:48 82.9 °F 57.5 °F 29.90 in Calm   2.0 mph 42% 0.00 in 26 W/m2
19:54 82.6 °F 56.5 °F 29.90 in NNW 1.0 mph 2.0 mph 41% 0.00 in 25 W/m2
20:00 82.4 °F 55.0 °F 29.91 in NW 1.0 mph 1.0 mph 39% 0.00 in 23 W/m2
20:06 82.2 °F 56.2 °F 29.91 in NW 1.0 mph 1.0 mph 41% 0.00 in 19 W/m2
20:14 81.8 °F 55.8 °F 29.90 in Calm     41% 0.00 in 14 W/m2
20:20 81.7 °F 55.7 °F 29.90 in Calm     41% 0.00 in 11 W/m2
20:26 81.8 °F 54.4 °F 29.90 in WSW 1.0 mph 4.0 mph 39% 0.00 in 9 W/m2
20:32 82.2 °F 54.8 °F 29.91 in West 2.0 mph 2.0 mph 39% 0.00 in 5 W/m2
20:38 82.2 °F 55.5 °F 29.91 in West 1.0 mph 2.0 mph 40% 0.00 in 0 W/m2
20:44 82.0 °F 56.0 °F 29.91 in WNW 1.0 mph 7.0 mph 41% 0.00 in 0 W/m2
20:50 81.5 °F 55.5 °F 29.91 in WNW 1.0 mph 1.0 mph 41% 0.00 in 0 W/m2
20:56 81.0 °F 55.1 °F 29.91 in Calm   1.0 mph 41% 0.00 in 0 W/m2
21:02 80.6 °F 55.4 °F 29.91 in Calm     42% 0.00 in 0 W/m2
21:08 80.1 °F 55.6 °F 29.91 in Calm     43% 0.00 in 0 W/m2
21:14 79.5 °F 55.7 °F 29.91 in Calm   1.0 mph 44% 0.00 in 0 W/m2
21:20 79.2 °F 56.0 °F 29.91 in Calm     45% 0.00 in 0 W/m2
21:26 78.9 °F 55.1 °F 29.91 in Calm     44% 0.00 in 0 W/m2
21:32 78.6 °F 55.5 °F 29.91 in Calm     45% 0.00 in 0 W/m2
21:38 78.2 °F 55.1 °F 29.91 in Calm     45% 0.00 in 0 W/m2
21:44 78.0 °F 58.4 °F 29.91 in Calm     51% 0.00 in 0 W/m2
21:50 77.5 °F 59.0 °F 29.91 in Calm     53% 0.00 in 0 W/m2
21:56 76.7 °F 58.8 °F 29.91 in Calm     54% 0.00 in 0 W/m2
22:02 76.0 °F 59.2 °F 29.91 in Calm     56% 0.00 in 0 W/m2
22:08 75.7 °F 59.9 °F 29.91 in Calm     58% 0.00 in 0 W/m2
22:14 75.2 °F 59.9 °F 29.91 in Calm     59% 0.00 in 0 W/m2
22:20 75.0 °F 59.7 °F 29.91 in Calm     59% 0.00 in 0 W/m2
22:32 74.6 °F 58.8 °F 29.91 in Calm     58% 0.00 in 0 W/m2
22:38 74.4 °F 57.7 °F 29.91 in Calm     56% 0.00 in 0 W/m2
22:44 74.6 °F 57.4 °F 29.91 in Calm   1.0 mph 55% 0.00 in 0 W/m2
22:50 74.8 °F 57.0 °F 29.91 in Calm     54% 0.00 in 0 W/m2
22:56 74.9 °F 56.6 °F 29.91 in Calm     53% 0.00 in 0 W/m2
23:02 74.9 °F 57.1 °F 29.92 in Calm     54% 0.00 in 0 W/m2
23:08 74.8 °F 57.5 °F 29.91 in Calm     55% 0.00 in 0 W/m2
23:14 74.8 °F 57.5 °F 29.91 in Calm     55% 0.00 in 0 W/m2
23:20 74.8 °F 57.5 °F 29.91 in Calm   1.0 mph 55% 0.00 in 0 W/m2
23:26 74.7 °F 57.5 °F 29.91 in Calm   1.0 mph 55% 0.00 in 0 W/m2
23:32 74.6 °F 57.9 °F 29.92 in Calm     56% 0.00 in 0 W/m2
23:38 74.5 °F 57.8 °F 29.92 in Calm     56% 0.00 in 0 W/m2
23:44 74.5 °F 57.8 °F 29.92 in Calm   2.0 mph 56% 0.00 in 0 W/m2
23:50 74.3 °F 57.6 °F 29.92 in Calm     56% 0.00 in 0 W/m2
23:56 74.0 °F 58.8 °F 29.92 in Calm     59% 0.00 in 0 W/m2
Country Meadow, Clay, NY, USA
Compliments of Weather Underground - 2 mb